Location: Aztalan State Park
(43.0642°N, 88.8607°W)
Time: 23:15:20
(UTC-06:00)

Hubble Space Telescope - Visible Passes

Search period start: 19 January 2018 00:00
Search period end: 29 January 2018 00:00
Orbit: 537 x 541 km, 28.5° (Epoch: 19 January)

Date Brightness Start Highest point End Pass type
(mag) Time Alt. Az. Time Alt. Az. Time Alt. Az.
26 Jan 3.4 19:04:29 10° S 19:05:12 10° S 19:05:31 10° S visible
27 Jan 3.4 18:53:59 10° SSW 18:54:48 10° S 18:55:36 10° S visible
28 Jan 3.4 18:43:44 10° SSW 18:44:23 10° S 18:45:02 10° S visible
